Voltar ao catálogo

SL-16 DEB

LostLEO
NORAD 42237·DEBRIS·🇷🇺 Russia

Lançado Mar 26, 1993 de Baikonur Cosmodrome

Loading…

Próximas Passagens (próximas 24 horas)

TLE

ObsoletoSource: Space-Track

Época: Apr 13, 2025, 05:15 UTC

1 42237U 93016CR  25103.21929655  .00353780  00000-0  22364-1 0  9991
2 42237  70.9050  82.2558 0019398 101.9628 258.3718 15.07017809133614

Acompanhe SL-16 DEB em tempo real com AllMySat

Download on the App Store